Stampede Pass, WA
on Wednesday, February 13, 2013

Wednesday
Previous Day Next Day
Daily Summary
 ActualAverage (KEAT)Record (KEAT)
Temperature
Mean Temperature °F 31°F  
Max Temperature 33°F 38°F 59°F (1971)
Min Temperature 28°F 23°F 14°F (1995)
Degree Days
Heating Degree Days 34 34  
Month to date heating degree days 452  
Since 1 July heating degree days 4709  
Cooling Degree Days 0 0  
Month to date cooling degree days 0  
Year to date cooling degree days 0  
Moisture
Dew Point 29°F   
Average Humidity 93    
Maximum Humidity 100    
Minimum Humidity 87    
Precipitation
Precipitation 0.01 in 0.05 in 0.40 in (1962)
Month to date precipitation 0.69  
Year to date precipitation 2.56  
Snow
Snow 0.00 in 0.20 in in ()
Month to date snowfall 3.4  
Since 1 July snowfall 43.8  
Snow Depth in   
Wind
Wind Speed 12 mph   
Max Wind Speed 18 mph   
Max Gust Speed 30 mph   
Visibility 2 miles   
Events Fog , Rain , Snow   

Key: T is trace of precipitation, MM is missing value
Source: NWS Daily Summary
Time(PST)TemperatureDew PointHumidity Pressure Visibility Wind DirectionWind SpeedGust SpeedPrecipitationEvents Conditions
1:07 AM 33.8°F 32.0°F 93% 30.21 in 1.2 miles West 15.0 mph 28.8 mph 0.02 in Rain Light Rain
1:19 AM 33.8°F 32.0°F 93% 30.21 in 0.8 miles West 13.8 mph 26.5 mph 0.03 in Rain Light Rain
2:19 AM 33.8°F 32.0°F 93% 30.20 in 0.5 miles WSW 10.4 mph 20.7 mph 0.03 in Fog Fog
6:56 AM 32.0°F 28.9°F 88% 30.30 in 10.0 miles West 15.0 mph 27.6 mph 0.01 in   Overcast
7:22 AM 32.0°F 28.4°F 87% 30.24 in 10.0 miles West 12.7 mph 29.9 mph N/A   Overcast
8:38 AM 30.2°F 28.4°F 93% 30.26 in 2.0 miles West 13.8 mph 28.8 mph N/A   Overcast
8:43 AM 30.2°F 28.4°F 93% 30.26 in 1.8 miles West 18.4 mph 29.9 mph N/A   Overcast
8:56 AM 30.0°F 28.0°F 92% 30.34 in 0.5 miles West 11.5 mph 24.2 mph 0.00 in Fog , Snow Light Snow
10:07 AM 28.4°F 26.6°F 93% 30.28 in 1.5 miles West 15.0 mph 26.5 mph N/A   Overcast
10:09 AM 28.4°F 26.6°F 93% 30.28 in 4.0 miles West 13.8 mph 27.6 mph N/A   Overcast
10:29 AM 28.4°F 28.4°F 100% 30.28 in 10.0 miles West 11.5 mph 27.6 mph N/A   Overcast
1:39 PM 30.2°F 28.4°F 93% 30.28 in 1.2 miles West 10.4 mph 23.0 mph 0.00 in Snow Light Snow
1:44 PM 30.2°F 28.4°F 93% 30.28 in 0.8 miles West 8.1 mph 19.6 mph 0.00 in Snow Light Snow
1:53 PM 30.2°F 28.4°F 93% 30.28 in 0.5 miles West 9.2 mph 18.4 mph 0.00 in Fog , Snow Light Snow
1:56 PM 30.0°F 28.9°F 96% 30.36 in 0.5 miles West 9.2 mph 18.4 mph 0.00 in Fog , Snow Light Snow
2:23 PM 30.2°F 28.4°F 93% 30.29 in 0.2 miles West 10.4 mph 21.9 mph 0.00 in Fog , Snow Light Snow
3:14 PM 30.2°F 28.4°F 93% 30.30 in 0.2 miles West 9.2 mph 18.4 mph 0.01 in Fog , Snow Light Snow
5:34 PM 30.2°F 28.4°F 93% 30.31 in 1.0 miles West 8.1 mph - 0.01 in Snow Light Snow
5:38 PM 30.2°F 28.4°F 93% 30.31 in 1.5 miles West 9.2 mph - 0.01 in Snow Light Snow
5:43 PM 30.2°F 28.4°F 93% 30.30 in 3.0 miles WSW 8.1 mph - 0.01 in   Overcast
6:03 PM 30.2°F 28.4°F 93% 30.31 in 0.8 miles West 8.1 mph - 0.00 in Snow Light Snow
6:21 PM 30.2°F 28.4°F 93% 30.31 in 0.2 miles West 8.1 mph - 0.01 in Fog , Snow Light Snow
7:41 PM 30.2°F 28.4°F 93% 30.33 in 1.0 miles Variable 6.9 mph - 0.00 in   Overcast
Moon Phase
Feb. 13 Feb. 17 Feb. 25 Mar. 04 Mar. 11
Sunrise:07:13 AM (PST) Moon Rise:08:26 AM (PST)2/13
Sunset:05:26 PM (PST) Moon Set:09:56 PM (PST)2/13

Copyright © 2014 The Weather Underground, Inc.